Miscellaneous Local Product
Issued by NWS North Platte, NE

Home | Current Version | Previous Version | Text Only | Print | Product List | Glossary On
Versions: 1 2 3 4 5 6 7 8 9 10 11 12 13 14 15 16 17 18 19 20 21 22 23 24 25 26 27 28 29 30 31 32 33 34 35 36 37 38 39 40 41 42 43 44 45 46 47 48 49 50
000
AXUS43 KLBF 161910
MISLBF


WESTERN AND NORTH CENTRAL NEBRASKA HOURLY WEATHER ROUNDUP
NATIONAL WEATHER SERVICE NORTH PLATTE NE
200 PM CDT WED APR 16 2014

***STATIONS NOT REPORTING VARIABLES SUCH AS SKY/WEATHER OR
PRESSURE ARE PROVIDED BY THE NEBRASKA DEPARTMENT OF
ROADS...RAWS...AND APRS NETWORKS...AND ARE NOT UNDER
NATIONAL WEATHER SERVICE QUALITY CONTROL***

...OBSERVATIONS IN AND NEAR THE EASTERN PANHANDLE OF NEBRASKA...

CITY           SKY/WX    TMP DP  RH WIND       PRES   REMARKS
PINE RIDGE     CLOUDY    38  32  79 N16G23    29.96R WCI  29
CHADRON        CLOUDY    43  37  79 NE15      29.96R
ALLIANCE       CLOUDY    44  35  70 N24G32    29.92R
SIDNEY         PTSUNNY   53  25  33 N30G39    29.92R
WHITECLAY        N/A     36  30  80 E17         N/A  WCI  25
CRESCENT LAKE    N/A     42  38  86 N16G30      N/A
LISCO            N/A     51  29  44 NW21        N/A
BIG SPRINGS      N/A     50  36  58 N20         N/A
LEWELLEN         N/A     46  33  61 W12         N/A
$$

...OBSERVATIONS IN SOUTHWEST NEBRASKA AND FAR NORTHEAST COLORADO...

CITY           SKY/WX    TMP DP  RH WIND       PRES   REMARKS
WRAY           FAIR      57  29  34 N23G37    29.90S
HOLYOKE        MOCLDY    54  32  43 N25G35    29.91R
IMPERIAL       PTSUNNY   55  34  45 N23G35    29.89R
OGALLALA       CLOUDY    50  34  53 N23G29    29.90R
NORTH PLATTE   CLOUDY    50  34  54 N24G33    29.88R
MCCOOK         PTSUNNY   58  35  42 N28G39    29.84R
LEXINGTON      MOSUNNY   53  37  55 N26G35    29.83R
PAXTON           N/A     49  37  62 NW16        N/A
SUTHERLAND       N/A     45  33  64 SE21        N/A
MEDICINE CREEK   N/A     56  40  54 N23         N/A
GOTHENBURG       N/A     50  37  59 N9G20       N/A
CALLAWAY         N/A     47  37  68 NW21        N/A
$$

...OBSERVATIONS IN NORTH CENTRAL NEBRASKA...

CITY           SKY/WX    TMP DP  RH WIND       PRES   REMARKS
VALENTINE      CLOUDY    34  29  82 N22G29    29.93R WCI  22
THEDFORD       CLOUDY    45  34  66 NW23      29.89R
AINSWORTH      CLOUDY    36  31  84 NW24G31   29.89R WCI  24
O`NEILL        CLOUDY    36  28  74 NW31G39   29.82R WCI  23
ORD            CLOUDY    43  31  62 NW30G40   29.81R
BROKEN BOW     CLOUDY    45  35  68 NW26G36   29.83R
BROWNLEE         N/A     38  36  92 NW25        N/A  WCI  27
SPRINGVIEW       N/A     34  28  79 W17G28      N/A  WCI  23
DUNNING          N/A     43  35  73 E18         N/A
BREWSTER         N/A     38  37  94 W23         N/A  WCI  28
ROSE             N/A     35  35  99 SW15        N/A  WCI  26
NEWPORT          N/A     35  32  90 NW17        N/A  WCI  25
COMSTOCK         N/A     43  34  71 W23         N/A
EWING            N/A     37  29  73 NW16G30     N/A  WCI  27
$$

...SOME WEATHER OBSERVATIONS FROM AROUND THE REGION...

CITY           SKY/WX    TMP DP  RH WIND       PRES   REMARKS
DENVER         MOSUNNY   54  17  23 NE22G31   29.91R
LARAMIE        PTSUNNY   39  18  42 NW16      29.95S WCI  30
CHEYENNE       SNOW      35  31  85 N10       29.96S VSB 1/2 WCI  27
SCOTTSBLUFF    PTSUNNY   53  24  32 NW25G35   29.93R
RAPID CITY     PTSUNNY   44  28  53 N22G28    29.97R
PIERRE         CLOUDY    35  28  75 N21G28    29.97R WCI  24
WINNER         CLOUDY    34  28  79 NW25      29.93R WCI  21
SIOUX FALLS    LGT RAIN  43  38  82 N16       29.68R
OMAHA          PTSUNNY   65  26  23 S25G43    29.69F
GRAND ISLAND   PTSUNNY   56  36  47 NW25G39   29.75R
KANSAS CITY    PTSUNNY   63  31  30 S29G44    29.86F
WICHITA        PTSUNNY   68  27  21 S31G38    29.83F
HAYS           MOSUNNY   66  34  30 NW21G28   29.81S
LIBERAL        MOSUNNY   66  28  24 N22G29    29.88R
GOODLAND       MOSUNNY   59  27  29 N31G44    29.87S
$$



USA.gov is the U.S. government's official web portal to all federal, state and local government web resources and services.